DELTA 1 DEB, 7046

Orbit data source: Space-Track

DELTA 1 DEB, 7046 is space debris in SSO originally from a launch on Tue, 06 Nov 1973 UTC launched from the Air Force Western Test Range (AFWTR). Debris objects in space refer to the collection of defunct objects orbiting the Earth. Examples of debris include non-operational satellites, rocket bodies, and fragments generated from explosions, collisions, or faulty payload assembly.

Loading next visibility...
Identifier
7046, 1973-086AN
Orbit
SSO
Country
Flag of USUS
Related business
Manufacturer
Unknown
Mission
Spacecraft
Bus & Motor
Unknown
Mass
Unknown
Launch date (UTC)
1973-11-06 (52 years ago)
Launch vehicle
Unknown
Launch site
Air Force Western Test Range (AFWTR)
Object type
Payload
Rocket body
Debris
Shape & HBR
Unknown
Radar Cross Section
Small (<0.1 m²)

Expand to show TLE details & history
Last TLE update: 9 hours ago

TLE from 9 hours ago
0 DELTA 1 DEB
1 07046U 73086AN  25259.53998756 -.00000022  00000-0  20249-3 0  9991
2 07046 102.5355 273.6472 0057612 140.1196 344.3179 12.29387005320388
Epoch: 2025-09-16T12:57Z
TLE epoch observation values (Epoch: 2025-09-16T12:57:34.925Z)
Latitude
53.8803°
Longitude
-78.82716°
Altitude
1,516.542 km
Speed
7.132 km/s
True Right ascension
07h 25m 11s
True Declination
53° 43' 56"
Sunlit
Object was in daylight at epoch
Visualization orbit readout
Latitude
Unknown
Longitude
Unknown
Altitude
Unknown
Speed
Unknown
Apparent Right ascension
Unknown
Apparent Declination
Unknown
Sunlit
N/A
Visualization observer readout
Local Sidereal Time
14:27:34
Azimuth
Unknown
Elevation
Unknown
Doppler factor
Unknown
Orbital elements
Apogee altitude
1,595.21 km
Perigee altitude
1,503.864 km
Semi-major axis
7,927.674 km
Eccentricity
0.00576
Inclination
102.5355°
RAAN
273.6472°
Arg. of periapsis
140.1196°
True anomaly
344.13821°
Mean anomaly
344.3179°
Eccentric anomaly
344.22818°
Mean motion
3.07485 °/min
Orbital period
117.08 mins
BSTAR
0.00020249
Loading maneuver chart data...
Computing Atmospheric mass density...
Loading historical data...
Loading historical data...
Loading historical data...
Loading historical data...
Loading historical data...
Loading historical data...
Loading historical data...

Documentation

Showing up to 5 results
|